sat.trackr.live / text

‹ back to catalog

STARLINK-34002

NORAD 63856 · 2025-093W

PAYLOAD ACTIVE UNKNOWN

§ Identity

Operator
Country
US
Launch date
2025-05-07
Launch site
AFETR
Launch vehicle
Mass (kg)
RCS (m²)

Purposes: comms

External: N2YO · Heavens-Above · Gunter

§ Orbital elements

Epoch: 2026-09-19T18:29:45.927744Z

Period
94.27 min
Inclination
43.0060°
Eccentricity
0.0000429
Mean motion
15.27592469 rev/d
Perigee alt
482.7 km
Apogee alt
483.3 km
Semi-major
6,861.1 km
B*
4.6475e-4
RAAN
61.8763°
Arg perigee
88.1862°
Mean anomaly
271.9039°
Rev number
7,743

§ Raw data

STARLINK-340021 63856U 25093W   26262.77067046  .00012553  00000+0  46475-3 0  99962 63856  43.0060  61.8763 0000429  88.1862 271.9039 15.27592469 77434

JSON: /api/v1/satellites/63856 · /tle

For live sub-satellite position, see the globe view (requires WebGL).

§ Visibility from observer

Set your observer location to see the next 7 days of passes ≥ 10°. The values pass through the URL so the page stays shareable.

No JS? Fill the form by hand. The geolocation button needs JavaScript.